sat.trackr.live / text

‹ back to catalog

GAOFEN-11 02

NORAD 46396 · 2020-064A

PAYLOAD ACTIVE UNKNOWN

§ Identity

Operator
Country
PRC
Launch date
2020-09-07
Launch site
TAISC
Launch vehicle
Mass (kg)
RCS (m²)

External: N2YO · Heavens-Above · Gunter

§ Orbital elements

Epoch: 2026-09-09T04:52:52.693824Z

Period
94.50 min
Inclination
97.5238°
Eccentricity
0.0019205
Mean motion
15.23734699 rev/d
Perigee alt
481.4 km
Apogee alt
507.8 km
Semi-major
6,872.7 km
B*
1.8319e-4
RAAN
18.3667°
Arg perigee
4.1434°
Mean anomaly
355.9958°
Rev number
33,432

§ Raw data

GAOFEN-11 021 46396U 20064A   26252.20338766  .00004350  00000+0  18319-3 0  99982 46396  97.5238  18.3667 0019205   4.1434 355.9958 15.23734699334326

JSON: /api/v1/satellites/46396 · /tle

For live sub-satellite position, see the globe view (requires WebGL).

§ Visibility from observer

Set your observer location to see the next 7 days of passes ≥ 10°. The values pass through the URL so the page stays shareable.

No JS? Fill the form by hand. The geolocation button needs JavaScript.